Location: Home
(42.5358°N, 72.7383°W)
Time: 18:21:35
(UTC-05:00)

Tiros 1 - Pass Details

Date: 03 December 2021
Orbit: 629 x 664 km, 48.4° (Epoch: 18 January)

Event Time Altitude Azimuth Distance (km) Brightness Sun altitude
Rises 21:36:45 0° 286° (WNW) 2,940 - -57.1°
Reaches altitude 10° 21:39:11 10° 294° (WNW) 2,037 - -57.5°
Maximum altitude 21:43:38 41° 5° (N) 942 - -58.2°
Drops below altitude 10° 21:48:07 10° 76° (ENE) 2,057 - -59.0°
Sets 21:50:35 0° 83° (E) 2,973 - -59.3°
